Location: Jetmore Oil Field
(38.1181°N, 99.9337°W)
Time: 23:32:12
(UTC+00:00)

STARLINK-2753 - Visible Passes

Search period start: 23 October 2021 00:00
Search period end: 02 November 2021 00:00
Orbit: 546 x 548 km, 53.1° (Epoch: 23 October)

Date Brightness Start Highest point End Pass type
(mag) Time Alt. Az. Time Alt. Az. Time Alt. Az.
23 Oct 6.6 10:02:53 14° E 10:02:53 14° E 10:04:00 10° E visible
23 Oct 3.6 11:38:33 29° WSW 11:40:27 60° NW 11:44:32 10° NE visible
24 Oct 6.7 09:57:32 13° E 09:57:32 13° E 09:58:11 10° ENE visible
24 Oct 4.0 11:33:11 37° WNW 11:34:11 45° NW 11:38:10 10° NE visible
25 Oct 6.9 09:52:01 11° ENE 09:52:01 11° ENE 09:52:11 10° ENE visible
25 Oct 4.3 11:27:39 35° NW 11:27:57 35° NNW 11:31:47 10° NE visible
26 Oct 4.8 11:21:59 28° NNW 11:21:59 28° NNW 11:25:19 10° NNE visible
27 Oct 5.2 11:16:12 22° NNW 11:16:12 22° NNW 11:18:50 10° NNE visible
28 Oct 5.6 11:10:19 18° N 11:10:19 18° N 11:12:19 10° NNE visible
29 Oct 5.9 11:04:22 15° N 11:04:22 15° N 11:05:46 10° NNE visible
30 Oct 6.1 10:58:21 12° N 10:58:21 12° N 10:59:12 10° NNE visible
30 Oct 6.2 12:37:43 10° N 12:37:54 10° N 12:38:05 10° N visible
31 Oct 6.3 10:52:18 11° N 10:52:18 11° N 10:52:35 10° NNE visible
31 Oct 6.1 12:30:55 10° N 12:31:44 10° N 12:32:33 10° NNE visible
01 Nov 6.1 12:24:15 10° N 12:25:32 11° N 12:26:50 10° NNE visible
